[[{"header":{"parameterUnit":"m.s-1","parameterCategory":1,"la1":30.2991,"la2":30.254,"lo1":-89.0895,"lo2":-89.0444,"dy":0.0017,"dx":0.0017,"nx":28,"ny":28,"refTime":"2025-12-01T09:00:00:Z","depth":0,"parameterNumber":2,"parameterNumberName":"U-component_of_WINDS"},"data":[0,0,0,0,0,0,0,0,0,0,0,0,0,0,0,0,0,0,0,0,0,0,0,0,0,0,0,0,0,0,0,0,0,0,0,0,0,0,0,0,0,0,0,0,0,0,0,0,0,0,0,0,0,0,0,0,0,0,0.4547,0.4547,0,0.4496,0.4496,0.4495,0.4438,0.4437,0.4436,0.4436,0.4384,0.4383,0.4383,0,0,0,0,0,0,0,0,0,0,0,0,0,0.4597,0.4596,0.4547,0.4547,0.4546,0.4496,0.4496,0.4495,0.4438,0.4437,0.4436,0.4435,0.4384,0.4383,0.4383,0,0,0,0,0,0,0,0,0,0,0,0,0,0.4564,0.4596,0.4547,0.4512,0.4508,0.4497,0.4496,0.4495,0.4438,0.4437,0.4436,0.4435,0.4384,0.4383,0.4383,0.4402,0,0,0.438,0.4379,0,0,0,0,0,0,0,0,0.4565,0.4562,0.4517,0.4514,0.451,0.4472,0.4494,0.4464,0.4439,0.4465,0.4436,0.4434,0.4414,0.4411,0.4404,0.44,0.4398,0.438,0.4379,0.4379,0.4379,0,0,0,0,0,0,0,0.4568,0.4564,0.4527,0.4517,0.4512,0.4499,0.4493,0.4488,0.4447,0.4462,0.4458,0.4453,0.4412,0.4405,0.4402,0.4397,0.438,0.4379,0.4378,0.4378,0.4409,0.4411,0,0,0,0,0,0,0.4575,0.4566,0.4529,0.4525,0.4535,0.4499,0.4492,0.4486,0.4447,0.444,0.4454,0.4451,0.4407,0.4404,0.44,0.4423,0.4379,0.4378,0.4377,0.4408,0.441,0.4411,0,0,0,0,0,0,0.4577,0.4573,0.4531,0.4545,0.4538,0.4499,0.4493,0.4485,0.4478,0.4441,0.4433,0.4455,0.4406,0.4402,0.4403,0.4421,0.4378,0.4377,0.4406,0.4409,0.441,0.4468,0,0,0,0,0,0,0.4578,0.4573,0.458,0.4545,0.4538,0.4534,0.4494,0.4485,0.4477,0.4472,0.4439,0.4433,0.4405,0.4405,0.4402,0.4419,0.4376,0.4405,0.4407,0.441,0.4465,0.4472,0.4479,0,0,0,0,0,0.458,0.4598,0.4581,0.4576,0.4545,0.4535,0.4531,0.4498,0.4479,0.4486,0.4462,0.4434,0.4419,0.4405,0.4402,0.4419,0.4403,0.4407,0.441,0.4462,0.4471,0.4478,0,0,0,0,0,0,0.4635,0.4592,0.4573,0.4579,0.4561,0.4525,0.4533,0.4508,0.4495,0.4491,0.4451,0.4444,0.4451,0.4434,0.442,0.4437,0.4407,0.441,0.4448,0.4456,0.4463,0.4468,0.4375,0,0,0,0,0,0.4648,0.4643,0.4606,0.4615,0.4607,0.4572,0.4566,0.4543,0.4522,0.4514,0.449,0.4472,0.4464,0.4459,0.4448,0.4462,0.4455,0.4472,0.4479,0.4484,0.4488,0.4496,0.4504,0.4421,0.4421,0.4421,0,0,0.4674,0.465,0.4649,0.4626,0.4609,0.4606,0.4566,0.4563,0.4561,0.4514,0.4514,0.4497,0.4473,0.4482,0.4484,0.4468,0.4509,0.4488,0.4493,0.4493,0.45,0.4508,0.4515,0.4423,0.4423,0.4423,0,0,0.4722,0.4702,0.4709,0.4693,0.4669,0.4645,0.4647,0.4615,0.4602,0.4602,0.4568,0.4564,0.4549,0.4535,0.4526,0.4571,0.4545,0.4568,0.4605,0.4614,0.4621,0.4626,0.4645,0.4651,0.4571,0.4571,0.4571,0,0.4758,0.4751,0.4716,0.4716,0.4708,0.4666,0.4674,0.466,0.4634,0.4629,0.4611,0.4594,0.4575,0.4581,0.4592,0.4585,0.4588,0.4572,0.4622,0.4628,0.4632,0.465,0.4656,0.4574,0.4574,0.4574,0.4573,0,0.4798,0.4794,0.4803,0.478,0.4772,0.4776,0.4742,0.4739,0.4717,0.4696,0.4698,0.4674,0.4659,0.4658,0.4636,0.4662,0.4653,0.4629,0.4599,0.4644,0.466,0.4666,0.4579,0.4578,0.4577,0.4576,0,0,0.4878,0.4836,0.4841,0.4831,0.4801,0.4798,0.4801,0.4787,0.4787,0.477,0.4773,0.4762,0.4741,0.4731,0.4707,0.4714,0.4755,0.469,0.4689,0.4705,0.4785,0.4805,0.4813,0.4737,0.4738,0.4739,0.4788,0,0.4922,0.4925,0.4894,0.4906,0.4904,0.4865,0.4868,0.4851,0.4831,0.4827,0.4805,0.48,0.4771,0.4765,0.477,0.4749,0.4771,0.4744,0.4741,0.4742,0.4751,0.4821,0.4841,0.4888,0.4793,0.4794,0.4795,0,0.4973,0.4961,0.4973,0.4946,0.4944,0.4947,0.4933,0.4929,0.491,0.4895,0.4885,0.4858,0.4861,0.4831,0.4835,0.4818,0.4815,0.4804,0.4805,0.4805,0.4773,0.4825,0.4902,0.4911,0.4804,0.4803,0.4803,0,0.5034,0.502,0.5026,0.5019,0.4986,0.499,0.4977,0.4956,0.4951,0.4939,0.4936,0.4924,0.4918,0.491,0.4881,0.4862,0.489,0.4857,0.488,0.4881,0.4889,0.4889,0.497,0.4883,0.4883,0.4883,0.4883,0,0.5087,0.5097,0.5054,0.5058,0.5068,0.5033,0.5044,0.5027,0.501,0.5011,0.4975,0.4977,0.4938,0.4935,0.4913,0.4921,0.4918,0.4908,0.4902,0.4912,0.4914,0.4911,0.4908,0.4885,0.4885,0.4884,0.4884,0,0.5158,0.5129,0.5133,0.5103,0.5095,0.5105,0.5079,0.5082,0.5061,0.5063,0.5061,0.5029,0.5025,0.4995,0.4983,0.4968,0.4986,0.4973,0.4993,0.499,0.5016,0.5015,0.5099,0.5109,0.5014,0.5015,0.5016,0,0.5195,0.5201,0.5172,0.5171,0.5159,0.5157,0.5152,0.5118,0.5114,0.5094,0.51,0.5093,0.5086,0.5082,0.5058,0.5049,0.5037,0.5067,0.5036,0.5047,0.5041,0.5042,0.5044,0.5074,0.5076,0.5077,0.5077,0,0.5265,0.5251,0.5245,0.5235,0.523,0.522,0.5208,0.5209,0.5172,0.517,0.5165,0.516,0.515,0.5144,0.5132,0.5119,0.5093,0.5087,0.5093,0.5105,0.5117,0.5114,0.5014,0.5086,0.5085,0.5084,0.5084,0.5084,0.5321,0.5326,0.5308,0.5303,0.5291,0.5281,0.5284,0.5264,0.5259,0.5249,0.5229,0.5228,0.5211,0.5192,0.5182,0.5182,0.5166,0.5173,0.5175,0.5178,0.5185,0.5116,0.5179,0.5179,0.5178,0.5178,0.5178,0,0.5392,0.5378,0.5374,0.5359,0.5356,0.5332,0.5318,0.5317,0.5318,0.5303,0.5298,0.5294,0.5289,0.5265,0.5258,0.5263,0.5251,0.5263,0.5263,0.5261,0.5198,0.5195,0.5272,0.5272,0.5272,0.5272,0.5272,0.5272,0.5428,0.5437,0.5421,0.5424,0.541,0.541,0.5405,0.5396,0.5385,0.5383,0.538,0.5364,0.5347,0.5338,0.5333,0.5326,0.5327,0.5343,0.5332,0.5274,0.5265,0.5256,0.5254,0.5342,0.5342,0.5396,0.5396,0.5397]},{"header":{"parameterUnit":"m.s-1","parameterCategory":1,"la1":30.2991,"la2":30.254,"lo1":-89.0895,"lo2":-89.0444,"dy":0.0017,"dx":0.0017,"nx":28,"ny":28,"refTime":"2025-12-01T09:00:00:Z","depth":0,"parameterNumber":3,"parameterNumberName":"V-component_of_WINDS"},"data":[0,0,0,0,0,0,0,0,0,0,0,0,0,0,0,0,0,0,0,0,0,0,0,0,0,0,0,0,0,0,0,0,0,0,0,0,0,0,0,0,0,0,0,0,0,0,0,0,0,0,0,0,0,0,0,0,0,0,1.4737,1.4743,0,1.534,1.5347,1.5354,1.5497,1.5493,1.5489,1.5485,1.6119,1.6139,1.6159,0,0,0,0,0,0,0,0,0,0,0,0,0,1.3724,1.3742,1.4736,1.4744,1.4751,1.5339,1.5347,1.5355,1.5498,1.5493,1.5488,1.5483,1.6112,1.6137,1.6161,0,0,0,0,0,0,0,0,0,0,0,0,0,1.4229,1.3748,1.4735,1.4893,1.4913,1.5337,1.5347,1.5358,1.5499,1.5493,1.5487,1.5481,1.6104,1.6134,1.6165,1.6479,0,0,1.626,1.6273,0,0,0,0,0,0,0,0,1.4201,1.4267,1.4862,1.4883,1.4906,1.5336,1.5223,1.5734,1.55,1.5277,1.5485,1.5478,1.5865,1.5915,1.6042,1.6509,1.6536,1.6262,1.6281,1.6295,1.6303,0,0,0,0,0,0,0,1.4165,1.4241,1.4976,1.4871,1.4898,1.4939,1.5004,1.532,1.5599,1.5296,1.5308,1.5376,1.5876,1.6012,1.6058,1.6546,1.6262,1.6289,1.6308,1.632,1.7305,1.7312,0,0,0,0,0,0,1.4101,1.4211,1.4956,1.4994,1.453,1.4962,1.5035,1.5205,1.5595,1.5649,1.5381,1.5381,1.5962,1.6022,1.6081,1.6478,1.6294,1.6323,1.6341,1.7298,1.7307,1.7315,0,0,0,0,0,0,1.4078,1.4166,1.4932,1.4606,1.4707,1.4986,1.5176,1.522,1.5356,1.5659,1.5711,1.5468,1.5959,1.6037,1.6379,1.6502,1.6337,1.6366,1.7289,1.7301,1.7311,1.7272,0,0,0,0,0,0,1.4049,1.4157,1.4275,1.4607,1.4723,1.5215,1.5183,1.5236,1.5408,1.5413,1.5755,1.5806,1.5961,1.6332,1.641,1.6542,1.639,1.7279,1.7294,1.7307,1.7264,1.7281,1.7295,0,0,0,0,0,1.4012,1.4243,1.428,1.437,1.4876,1.5222,1.5289,1.5458,1.5416,1.5541,1.5736,1.5795,1.6474,1.6366,1.6455,1.6598,1.7272,1.729,1.7306,1.7257,1.7277,1.7295,0,0,0,0,0,0,1.3924,1.429,1.4335,1.4679,1.4918,1.5245,1.5407,1.5474,1.5733,1.5728,1.5931,1.6007,1.6337,1.6502,1.6373,1.6925,1.6873,1.6909,1.6805,1.6827,1.6843,1.6798,1.6416,0,0,0,0,0,1.3943,1.4188,1.4496,1.4771,1.4887,1.5126,1.5283,1.5392,1.5649,1.5752,1.5972,1.6224,1.6496,1.667,1.6936,1.7287,1.7367,1.743,1.7445,1.7456,1.7486,1.7688,1.7721,1.7371,1.7371,1.737,0,0,1.3989,1.4219,1.4362,1.4759,1.4956,1.5211,1.521,1.5479,1.5671,1.5795,1.6131,1.63,1.6596,1.6944,1.7109,1.7092,1.76,1.7478,1.7485,1.751,1.7709,1.7742,1.7771,1.7382,1.738,1.7378,0,0,1.4202,1.4398,1.4649,1.4846,1.5143,1.53,1.536,1.5678,1.5794,1.6133,1.6232,1.6466,1.6927,1.7134,1.7299,1.759,1.7656,1.7671,1.7755,1.7949,1.7977,1.8003,1.8111,1.8146,1.7699,1.7699,1.7699,0,1.4223,1.4604,1.4772,1.5036,1.521,1.5327,1.5587,1.5771,1.6142,1.6262,1.6236,1.6818,1.7025,1.7424,1.7495,1.7623,1.7703,1.7635,1.7958,1.7986,1.8012,1.8118,1.8157,1.7699,1.7699,1.7699,1.7699,0,1.4617,1.488,1.5048,1.5398,1.5591,1.5851,1.6063,1.6239,1.6331,1.6492,1.6838,1.7089,1.7409,1.7511,1.7606,1.7927,1.7907,1.7916,1.787,1.8043,1.8146,1.8187,1.7699,1.7699,1.7699,1.7699,0,0,1.4794,1.5231,1.5291,1.5452,1.5788,1.5998,1.6265,1.6572,1.6721,1.6973,1.7206,1.7593,1.7604,1.7792,1.7911,1.808,1.8299,1.8071,1.8081,1.8108,1.8674,1.8667,1.871,1.8342,1.8351,1.8357,1.865,0,1.5052,1.5528,1.5686,1.6084,1.6333,1.6447,1.6682,1.6916,1.7073,1.7311,1.7488,1.776,1.7752,1.7866,1.8039,1.8235,1.8416,1.8216,1.8568,1.8578,1.8494,1.8763,1.8758,1.9022,1.8691,1.8698,1.8703,0,1.5416,1.5668,1.6089,1.6395,1.6505,1.6711,1.7008,1.7231,1.7501,1.7604,1.7812,1.7918,1.8208,1.814,1.8545,1.8405,1.8558,1.8676,1.8691,1.8735,1.8654,1.8819,1.911,1.915,1.8767,1.8762,1.8757,0,1.5508,1.5953,1.6263,1.6397,1.6761,1.6904,1.7063,1.7326,1.7501,1.7762,1.7879,1.817,1.8331,1.8557,1.8741,1.8673,1.9131,1.9078,1.923,1.9226,1.9326,1.9318,1.965,1.9416,1.9415,1.9414,1.9413,0,1.5782,1.6036,1.6309,1.6501,1.679,1.6972,1.7256,1.7422,1.7655,1.7885,1.8003,1.8217,1.8444,1.869,1.8835,1.9151,1.9222,1.9318,1.9355,1.9311,1.9299,1.9418,1.9406,1.9425,1.9423,1.9421,1.9419,0,1.5936,1.6128,1.6474,1.6789,1.6874,1.7074,1.7346,1.7539,1.77,1.7989,1.8068,1.8324,1.8619,1.8822,1.9203,1.9301,1.9644,1.9676,1.9551,1.957,1.9713,1.9698,2.0137,2.0206,1.992,1.9922,1.9924,0,1.6099,1.6297,1.6631,1.6791,1.6949,1.7205,1.7383,1.757,1.7753,1.8074,1.823,1.8531,1.8783,1.925,1.9474,1.9766,1.9809,1.9942,1.9854,1.9804,1.9817,1.9805,1.9828,1.9957,1.9959,1.9961,1.9962,0,1.6372,1.6457,1.6706,1.699,1.7198,1.7432,1.7668,1.7793,1.8023,1.8222,1.8522,1.8717,1.9103,1.9403,1.9716,1.9887,1.9966,1.9987,2.0039,1.9999,1.992,1.9969,1.9593,1.9978,1.9976,1.9975,1.9974,1.9974,1.654,1.6722,1.6985,1.726,1.7456,1.7673,1.787,1.8053,1.8305,1.8631,1.8727,1.904,1.9309,1.9736,1.9911,2.0163,2.0153,2.0227,2.0247,2.0264,2.0265,1.9874,2.022,2.022,2.022,2.022,2.022,0,1.6822,1.6996,1.7246,1.757,1.7788,1.7835,1.8098,1.8279,1.8551,1.8792,1.9036,1.9383,1.9674,1.9919,2.0222,2.0377,2.0421,2.0451,2.0444,2.0483,2.0254,2.0181,2.041,2.041,2.041,2.041,2.041,2.0409,1.6994,1.7306,1.7422,1.7833,1.8008,1.8311,1.8458,1.8661,1.8854,1.9234,1.9475,1.963,1.9875,2.0196,2.0467,2.0532,2.0641,2.0663,2.0737,2.052,2.0498,2.0478,2.0411,2.0684,2.0684,2.0946,2.0948,2.095]}]]